Weather History for Tuscaloosa, AL

Change the Weather History Date:

Wednesday, September 11, 2013

  Actual Average Record
Temperature  
Mean Temperature 82 °F 77 °F  
Max Temperature 94 °F 89 °F 100 °F (1962)
Min Temperature 70 °F 66 °F 48 °F (1976)
Degree Days  
Heating Degree Days 0 0  
Month to date heating degree days 0 0  
Since 1 July heating degree days 0 0  
Cooling Degree Days 16    
Growing Degree Days 31 (Base 50)    
Moisture  
Dew Point 68 °F    
Average Humidity 67    
Maximum Humidity 93    
Minimum Humidity 41    
Precipitation  
Precipitation 0.00 in 0.13 in 0.89 in (1989)
Month to date precipitation 0.04 1.27  
Year to date precipitation 38.86 37.14  
Sea Level Pressure  
Sea Level Pressure 30.13 in    
Wind  
Wind Speed 3 mph (ESE)    
Max Wind Speed 10 mph    
Max Gust Speed 16 mph    
Visibility 8 miles    
Events      
T = Trace of Precipitation, MM = Missing Value Source: NWS Daily Summary

Daily Weather History Graph

Daily Weather History Graph

Search for Another Location

Airport:

Trip Planner

Search our weather history database for the weather conditions in past years. The results will help you decide how hot, cold, wet, or windy it might be!

Date:

Astronomy

Sep. 11, 2013 Rise Set
Actual Time 6:31 AM CDT 7:01 PM CDT
Civil Twilight 6:06 AM CDT 7:26 PM CDT
Nautical Twilight 5:37 AM CDT 7:55 PM CDT
Astronomical Twilight 5:07 AM CDT 8:25 PM CDT
Moon 12:39 PM CDT (9/11) 11:17 PM CDT (9/11)
Length of Visible Light 13h 20m
Length of Day
12h 30m
Waxing Crescent, 39% of the Moon is Illuminated
Sep 11
Waxing Crescent
Sep 12
First Quarter
Sep 19
Full
Sep 26
Last Quarter
Oct 4
New

Hourly Weather History & Observations

Time (CDT) Temp. Heat Index Dew Point Humidity Pressure Visibility Wind Dir Wind Speed Gust Speed Precip Events Conditions
12:53 AM 73.0 °F - 70.0 °F 90% 30.14 in 5.0 mi Calm Calm - N/A   Clear
1:53 AM 72.0 °F - 70.0 °F 93% 30.14 in 5.0 mi Calm Calm - N/A   Clear
2:53 AM 72.0 °F - 70.0 °F 93% 30.14 in 5.0 mi Calm Calm - N/A   Clear
3:53 AM 71.1 °F - 69.1 °F 93% 30.14 in 5.0 mi WNW 3.5 mph - N/A   Clear
4:53 AM 71.1 °F - 69.1 °F 93% 30.14 in 5.0 mi Calm Calm - N/A   Clear
5:53 AM 71.1 °F - 68.0 °F 90% 30.16 in 6.0 mi Calm Calm - N/A   Clear
6:53 AM 72.0 °F - 69.1 °F 91% 30.17 in 5.0 mi Calm Calm - N/A   Clear
7:53 AM 77.0 °F - 70.0 °F 79% 30.19 in 6.0 mi Calm Calm - N/A   Haze
8:53 AM 80.1 °F 82.9 °F 69.1 °F 69% 30.19 in 9.0 mi East 5.8 mph - N/A   Clear
9:53 AM 84.9 °F 88.8 °F 69.1 °F 59% 30.20 in 10.0 mi SE 4.6 mph - 0.01 in   Clear
10:53 AM 87.1 °F 91.3 °F 69.1 °F 55% 30.19 in 10.0 mi SSE 5.8 mph - N/A   Clear
11:53 AM 90.0 °F 93.6 °F 68.0 °F 48% 30.17 in 10.0 mi ENE 8.1 mph - N/A   Partly Cloudy
12:53 PM 91.9 °F 95.4 °F 66.9 °F 44% 30.16 in 10.0 mi Variable 4.6 mph - N/A   Scattered Clouds
1:53 PM 91.9 °F 94.5 °F 66.0 °F 42% 30.13 in 10.0 mi East 4.6 mph - N/A   Partly Cloudy
2:53 PM 90.0 °F 91.3 °F 64.0 °F 42% 30.11 in 10.0 mi East 5.8 mph - N/A   Partly Cloudy
3:53 PM 90.0 °F 90.6 °F 63.0 °F 40% 30.08 in 10.0 mi ESE 5.8 mph - N/A   Partly Cloudy
4:53 PM 89.1 °F 90.3 °F 64.0 °F 43% 30.08 in 10.0 mi ESE 4.6 mph - N/A   Clear
5:53 PM 91.0 °F 92.6 °F 64.0 °F 41% 30.07 in 10.0 mi East 4.6 mph - N/A   Mostly Cloudy
6:53 PM 84.0 °F 87.0 °F 68.0 °F 58% 30.08 in 10.0 mi East 3.5 mph - N/A   Partly Cloudy
7:53 PM 79.0 °F - 68.0 °F 69% 30.09 in 10.0 mi East 3.5 mph - N/A   Clear
8:53 PM 77.0 °F - 69.1 °F 76% 30.10 in 10.0 mi Calm Calm - N/A   Clear
9:53 PM 73.9 °F - 69.1 °F 85% 30.10 in 8.0 mi Calm Calm - N/A   Clear
10:53 PM 73.0 °F - 69.1 °F 87% 30.10 in 7.0 mi Calm Calm - N/A   Clear
11:53 PM 72.0 °F - 69.1 °F 91% 30.09 in 6.0 mi North - - N/A   Clear